7 * 24
多渠道服务支持
COSMOS 2235是独联体(CIS)发射的GLONASS(格洛纳斯)导航卫星,于1993年2月17日升空,属于俄罗斯全球卫星导航系统的组网卫星。GLONASS是全球第二个投入运行的全球卫星导航系统,采用中圆地球轨道,卫星轨道高度约19100千米,倾角64.8°,运行周期约11小时15分钟,可为全球提供全天候定位、导航与授时服务,在高纬度地区拥有独特的覆盖优势。该卫星为GLONASS系统早期组网与系统正式投入运行提供了重要支撑。
俄罗斯(独联体)
(CIS)
| 数据来源 | 国际轨道数据 |
| 星历时间: | 2026-09-09T07:55:04+0800 2天前 查看轨道信息 |
| 半长轴: | 25507.993km |
| 偏心率: | 0.0008121 |
| 轨道倾角: | 64.968° |
| 近地点辐角 | 205.508° |
| 升交点赤经 | 67.438° |
| 平近点角 | 331.286° |
| 近地点: | 19109.14km |
| 远地点: | 19150.572km |
| 周期: | 675.731分钟 |
| 每日圈数: | 2.131024 |